MICROCARB

基本信息
目录编号:
64899
目录名称:
CARB
国际标识:
2025-156A
轨道中心:
EARTH
卫星名称:
MICROCARB
卫星全名:
MICROCARB
卫星状态:
在轨 (已飞行142 天)
发射日期:
2025-07-26 UTC
国别 :
法国 (FR)
星等 :
--
轨道信息
数据来源 国际轨道数据 AOE轨道数据
星历时间 2025-12-15T02:11:16+0800
23小时前
查看轨道信息
2025-12-15T05:00:00+0800
21小时前
查看轨道信息
半长轴 7032.635km 7032.638km
偏心率 0.0017265 0.0017216
轨道倾角 98.002° 98.003°
近地点辐角 138.596° 138.165°
升交点赤经 64.071° 64.185°
平近点角 221.656° 122.693°
近地点 642.358km 642.395km
远地点 666.642km 666.611km
周期 97.822分钟 97.822分钟
每日圈数 14.720606 14.720597
详细信息
使用方式:
暂无
2D轨道图
3D轨道图
轨道高度分析图
轨道倾角分析图
轨道综合分析图
查看轨道综合分析图